User: anonymous   Login
Location: Dulzura
(32.6442°N, 116.7814°W)
Time: 14:12:15
(UTC+00:00)
Language:

YUBILEINY - Orbit

View from above orbital plane
View from above orbital plane
View from above satellite
View from above satellite

Ground track
Ground track

The orbit data is extracted from the following two-line orbital elements,

1 32953U 08025A   23091.10292506  .00000024  00000-0  10000-3 0  9997
2 32953  82.5100   5.0419 0019906 355.8049   4.2863 12.43121305674077
Epoch (UTC): 01 April 2023 02:28:12
Eccentricity: 0.0019906
inclination: 82.5100°
perigee height: 1478 km
apogee height: 1509 km
right ascension of ascending node: 5.0419°
argument of perigee: 355.8049°
revolutions per day: 12.43121305
mean anomaly at epoch: 4.2863°
orbit number at epoch: 67407

The dashed part of the orbit path shows where the satellite is in the earth's shadow,  

DLR